International Falls, MN

2:03 PM CDT on August 22, 2017 (GMT -0500)
Falls International

Weather History for KINL - January, 2013

Change the Weather History Date:

Monday, January 7, 2013

  Actual Average Record
Temperature  
Mean Temperature 26 °F 4 °F  
Max Temperature 33 °F 15 °F 46 °F (2003)
Min Temperature 18 °F -6 °F -54 °F (1909)
Degree Days  
Heating Degree Days 39 61  
Month to date heating degree days 376 423  
Since 1 July heating degree days 4507 4598  
Cooling Degree Days 0 0  
Month to date cooling degree days 0 0  
Year to date cooling degree days 0 0  
Moisture  
Dew Point 20 °F    
Average Humidity 76    
Maximum Humidity 85    
Minimum Humidity 66    
Precipitation  
Precipitation T in 0.03 in 4.02 in (1907)
Month to date precipitation 0.07 0.17  
Year to date precipitation 0.07 0.17  
Snow  
Snow T in 0.60 in 6.60 in (1989)
Month to date snowfall 1.6 3.7  
Since 1 July snowfall 26.9 34.7  
Snow Depth 9.00 in    
Sea Level Pressure  
Sea Level Pressure 29.70 in    
Wind  
Wind Speed 11 mph (WSW)    
Max Wind Speed 22 mph    
Max Gust Speed 35 mph    
Visibility 10 miles    
Events      
T = Trace of Precipitation, MM = Missing Value Source: NWS Daily Summary

Daily Weather History Graph

Daily Weather History Graph

Search for Another Location

Airport or City:

Trip Planner

Search our weather history database for the weather conditions in past years. The results will help you decide how hot, cold, wet, or windy it might be!

Date:

Astronomy

Jan. 07, 2013 Rise Set
Actual Time 8:04 AM CST 4:35 PM CST
Civil Twilight 7:28 AM CST 5:12 PM CST
Nautical Twilight 6:48 AM CST 5:51 PM CST
Astronomical Twilight 6:10 AM CST 6:29 PM CST
Moon 3:23 AM CST (1/7) 12:51 PM CST (1/7)
Length of Visible Light 9h 43m
Length of Day
8h 31m
Waning Crescent, 22% of the Moon is Illuminated
Jan 7
Waning Crescent
Jan 11
New
Jan 18
First Quarter
Jan 26
Full
Feb 3
Last Quarter

Hourly Weather History & Observations

Time (CST) Temp. Windchill Dew Point Humidity Pressure Visibility Wind Dir Wind Speed Gust Speed Precip Events Conditions
12:55 AM 18.0 °F 8.7 °F 12.9 °F 81% 29.77 in 10.0 mi South 6.9 mph - N/A   Partly Cloudy
1:55 AM 19.0 °F 7.5 °F 14.0 °F 81% 29.75 in 10.0 mi South 10.4 mph 18.4 mph N/A   Mostly Cloudy
2:55 AM 19.9 °F 7.9 °F 15.1 °F 81% 29.73 in 10.0 mi SSW 11.5 mph 21.9 mph N/A   Clear
3:55 AM 19.9 °F 6.2 °F 15.1 °F 81% 29.69 in 10.0 mi SSW 15.0 mph 20.7 mph N/A   Overcast
4:55 AM 19.9 °F 8.6 °F 15.1 °F 81% 29.66 in 10.0 mi SSW 10.4 mph - N/A   Overcast
5:55 AM 19.0 °F 6.8 °F 15.1 °F 85% 29.66 in 10.0 mi SSW 11.5 mph 18.4 mph N/A   Clear
6:55 AM 19.0 °F 7.5 °F 14.0 °F 81% 29.65 in 10.0 mi SSW 10.4 mph - N/A   Mostly Cloudy
7:20 AM 17.6 °F 6.4 °F 14.0 °F 86% 29.58 in 10.0 mi SW 9.2 mph - N/A   Scattered Clouds
7:32 AM 17.6 °F 6.4 °F 14.0 °F 86% 29.58 in 10.0 mi SSW 9.2 mph - N/A   Mostly Cloudy
7:55 AM 19.0 °F 10.0 °F 15.1 °F 85% 29.65 in 10.0 mi SW 6.9 mph - N/A   Overcast
8:55 AM 21.9 °F 11.0 °F 17.1 °F 82% 29.64 in 10.0 mi SW 10.4 mph - N/A   Overcast
9:55 AM 25.0 °F 13.1 °F 19.0 °F 78% 29.63 in 10.0 mi SW 13.8 mph 20.7 mph N/A   Mostly Cloudy
10:06 AM 26.6 °F 15.7 °F 19.4 °F 74% 29.57 in 10.0 mi SW 12.7 mph - N/A   Scattered Clouds
10:13 AM 26.6 °F 14.7 °F 19.4 °F 74% 29.57 in 10.0 mi SW 15.0 mph 21.9 mph N/A   Mostly Cloudy
10:41 AM 28.4 °F 18.5 °F 21.2 °F 74% 29.57 in 10.0 mi WSW 11.5 mph 21.9 mph N/A   Partly Cloudy
10:55 AM 28.9 °F 18.2 °F 23.0 °F 78% 29.63 in 10.0 mi WSW 13.8 mph 19.6 mph N/A   Mostly Cloudy
11:42 AM 30.2 °F 19.8 °F 24.8 °F 80% 29.56 in 10.0 mi WSW 13.8 mph 25.3 mph N/A   Overcast
11:55 AM 30.9 °F 20.7 °F 24.1 °F 76% 29.62 in 10.0 mi WSW 13.8 mph 25.3 mph N/A   Overcast
12:12 PM 30.2 °F 19.3 °F 24.8 °F 80% 29.56 in 10.0 mi WSW 15.0 mph 23.0 mph N/A   Overcast
12:55 PM 32.0 °F 19.5 °F 24.8 °F 75% 29.57 in 10.0 mi WSW 21.9 mph 31.1 mph N/A   Overcast
1:55 PM 33.1 °F 23.4 °F 24.1 °F 70% 29.65 in 10.0 mi West 13.8 mph 31.1 mph N/A   Overcast
2:55 PM 33.1 °F 23.4 °F 24.1 °F 70% 29.68 in 10.0 mi West 13.8 mph 20.7 mph N/A   Overcast
3:55 PM 33.1 °F 22.6 °F 24.1 °F 70% 29.70 in 10.0 mi West 16.1 mph 25.3 mph N/A   Overcast
4:55 PM 32.0 °F 21.6 °F 24.8 °F 75% 29.68 in 10.0 mi West 15.0 mph 23.0 mph N/A   Overcast
5:55 PM 32.0 °F 22.1 °F 23.0 °F 69% 29.77 in 10.0 mi West 13.8 mph 21.9 mph N/A   Overcast
6:23 PM 30.2 °F 21.3 °F 23.0 °F 75% 29.72 in 10.0 mi West 10.4 mph - N/A   Overcast
6:53 PM 30.2 °F 20.8 °F 23.0 °F 75% 29.74 in 10.0 mi West 11.5 mph - N/A   Overcast
6:55 PM 30.9 °F 21.7 °F 23.0 °F 72% 29.80 in 10.0 mi West 11.5 mph - N/A   Overcast
7:55 PM 30.0 °F 24.1 °F 21.9 °F 72% 29.83 in 10.0 mi WNW 5.8 mph - N/A   Overcast
8:05 PM 30.2 °F 24.3 °F 21.2 °F 69% 29.77 in 10.0 mi West 5.8 mph - N/A   Overcast
8:55 PM 30.0 °F 25.2 °F 23.0 °F 75% 29.85 in 10.0 mi West 4.6 mph - N/A   Overcast
9:07 PM 30.2 °F 26.7 °F 23.0 °F 75% 29.79 in 10.0 mi West 3.5 mph - N/A   Overcast
9:55 PM 30.0 °F 25.2 °F 24.1 °F 79% 29.86 in 10.0 mi West 4.6 mph - N/A   Overcast
10:55 PM 28.9 °F 23.9 °F 24.1 °F 82% 29.86 in 10.0 mi WSW 4.6 mph - N/A   Overcast
11:55 PM 28.9 °F 22.8 °F 23.0 °F 78% 29.87 in 10.0 mi SW 5.8 mph - N/A   Overcast